• In Hungary
  • List of Countries
  • For 7 days
  • Water Temperature
  • Satellite Maps
  • Weather Map
  • News
  • Weather Widgets
  • user-avatar
    Login

    Hourly Weather Mouscron

    Today, 22 September, Saturday

    Time Temperature Precipitation Wind Pressure Humidity
    00:00 +12°C° 0 mm 5 mps 761 mmHg 71%
    01:00 +12°C° 0 mm 4 mps 761 mmHg 74%
    02:00 +11°C° 0 mm 4 mps 761 mmHg 76%
    03:00 +11°C° 0 mm 4 mps 761 mmHg 78%
    04:00 +11°C° 0 mm 4 mps 761 mmHg 77%
    05:00 +12°C° 0 mm 4 mps 761 mmHg 77%
    06:00 +12°C° 0 mm 4 mps 761 mmHg 78%
    07:00 +13°C° 0.1 mm 4 mps 761 mmHg 75%
    08:00 +14°C° 0.1 mm 5 mps 761 mmHg 72%
    09:00 +15°C° 0.1 mm 5 mps 761 mmHg 69%
    10:00 +15°C° 0.3 mm 5 mps 761 mmHg 69%
    11:00 +15°C° 0.3 mm 5 mps 761 mmHg 68%
    12:00 +15°C° 0.3 mm 5 mps 761 mmHg 68%
    13:00 +14°C° 0.3 mm 5 mps 761 mmHg 72%
    14:00 +14°C° 0.3 mm 4 mps 761 mmHg 75%
    15:00 +13°C° 0.3 mm 4 mps 761 mmHg 79%
    16:00 +12°C° 0.5 mm 4 mps 760 mmHg 81%
    17:00 +12°C° 0.5 mm 3 mps 760 mmHg 84%
    18:00 +11°C° 0.5 mm 3 mps 759 mmHg 87%
    19:00 +11°C° 0.8 mm 3 mps 759 mmHg 88%
    20:00 +11°C° 0.8 mm 3 mps 759 mmHg 89%
    21:00 +11°C° 0.8 mm 3 mps 758 mmHg 90%
    22:00 +11°C° 0.6 mm 3 mps 758 mmHg 90%
    23:00 +11°C° 0.6 mm 3 mps 757 mmHg 90%

    Tomorrow, 23 September, Sunday

    Time Temperature Precipitation Wind Pressure Humidity
    00:00 +11°C° 0.6 mm 3 mps 756 mmHg 91%
    01:00 +11°C° 0.4 mm 3 mps 756 mmHg 91%
    02:00 +11°C° 0.4 mm 3 mps 756 mmHg 92%
    03:00 +13°C° 0.4 mm 2 mps 755 mmHg 92%
    04:00 +13°C° 0.3 mm 2 mps 755 mmHg 93%
    05:00 +13°C° 0.3 mm 2 mps 755 mmHg 93%
    06:00 +13°C° 0.3 mm 2 mps 755 mmHg 93%
    07:00 +13°C° 0.4 mm 2 mps 755 mmHg 93%
    08:00 +13°C° 0.4 mm 2 mps 755 mmHg 92%
    09:00 +13°C° 0.4 mm 2 mps 754 mmHg 92%
    10:00 +12°C° 3.2 mm 3 mps 754 mmHg 91%
    11:00 +12°C° 3.2 mm 4 mps 754 mmHg 91%
    12:00 +10°C° 3.2 mm 5 mps 754 mmHg 91%
    13:00 +10°C° 0.6 mm 5 mps 755 mmHg 90%
    14:00 +10°C° 0.6 mm 5 mps 756 mmHg 90%
    15:00 +11°C° 0.6 mm 4 mps 757 mmHg 89%
    16:00 +11°C° 0.5 mm 4 mps 758 mmHg 88%
    17:00 +10°C° 0.5 mm 5 mps 760 mmHg 88%
    18:00 +10°C° 0.5 mm 5 mps 761 mmHg 87%
    19:00 +11°C° 0.1 mm 4 mps 762 mmHg 86%
    20:00 +10°C° 0.1 mm 4 mps 763 mmHg 86%
    21:00 +10°C° 0.1 mm 4 mps 764 mmHg 86%
    22:00 +10°C° 0.1 mm 3 mps 765 mmHg 86%
    23:00 +9°C° 0.1 mm 3 mps 766 mmHg 86%

    Day after tomorrow, 24 September, Monday

    Time Temperature Precipitation Wind Pressure Humidity
    00:00 +9°C° 0.1 mm 3 mps 767 mmHg 86%
    01:00 +9°C° 0 mm 3 mps 768 mmHg 85%
    02:00 +9°C° 0 mm 3 mps 768 mmHg 84%
    03:00 +9°C° 0 mm 3 mps 769 mmHg 83%
    04:00 +8°C° 0 mm 2 mps 770 mmHg 82%
    05:00 +8°C° 0 mm 2 mps 770 mmHg 81%
    06:00 +8°C° 0 mm 2 mps 771 mmHg 80%
    07:00 +10°C° 0 mm 2 mps 771 mmHg 74%
    08:00 +12°C° 0 mm 3 mps 772 mmHg 67%
    09:00 +14°C° 0 mm 3 mps 772 mmHg 61%
    10:00 +14°C° 0 mm 3 mps 773 mmHg 58%
    11:00 +15°C° 0 mm 4 mps 773 mmHg 55%
    12:00 +17°C° 0 mm 4 mps 773 mmHg 52%
    13:00 +15°C° 0 mm 5 mps 773 mmHg 53%
    14:00 +15°C° 0 mm 5 mps 773 mmHg 54%
    15:00 +15°C° 0 mm 5 mps 773 mmHg 55%
    16:00 +14°C° 0 mm 4 mps 773 mmHg 60%
    17:00 +12°C° 0 mm 4 mps 773 mmHg 65%
    18:00 +11°C° 0 mm 3 mps 773 mmHg 71%
    19:00 +10°C° 0 mm 3 mps 774 mmHg 71%
    20:00 +10°C° 0 mm 2 mps 774 mmHg 72%
    21:00 +9°C° 0 mm 2 mps 775 mmHg 73%
    22:00 +9°C° 0 mm 2 mps 775 mmHg 74%
    23:00 +9°C° 0 mm 2 mps 775 mmHg 76%

    25 September, Tuesday

    Time Temperature Precipitation Wind Pressure Humidity
    00:00 +9°C° 0 mm 1 mps 775 mmHg 77%
    01:00 +9°C° 0 mm 1 mps 775 mmHg 79%
    02:00 +8°C° 0 mm 2 mps 775 mmHg 80%
    03:00 +7°C° 0 mm 2 mps 775 mmHg 82%
    04:00 +7°C° 0 mm 2 mps 775 mmHg 83%
    05:00 +7°C° 0 mm 2 mps 775 mmHg 84%
    06:00 +7°C° 0 mm 2 mps 775 mmHg 85%
    07:00 +8°C° 0 mm 2 mps 775 mmHg 77%
    08:00 +10°C° 0 mm 3 mps 775 mmHg 69%
    09:00 +12°C° 0 mm 3 mps 775 mmHg 62%
    10:00 +13°C° 0 mm 3 mps 775 mmHg 57%
    11:00 +14°C° 0 mm 3 mps 775 mmHg 51%
    12:00 +15°C° 0 mm 4 mps 774 mmHg 46%
    13:00 +15°C° 0 mm 4 mps 774 mmHg 46%
    14:00 +15°C° 0 mm 4 mps 773 mmHg 46%
    15:00 +15°C° 0 mm 4 mps 773 mmHg 46%
    16:00 +14°C° 0 mm 3 mps 772 mmHg 50%
    17:00 +12°C° 0 mm 3 mps 772 mmHg 55%
    18:00 +11°C° 0 mm 3 mps 772 mmHg 59%
    19:00 +10°C° 0 mm 3 mps 772 mmHg 60%
    20:00 +10°C° 0 mm 2 mps 772 mmHg 62%
    21:00 +9°C° 0 mm 2 mps 772 mmHg 63%
    22:00 +8°C° 0 mm 2 mps 772 mmHg 65%
    23:00 +8°C° 0 mm 2 mps 772 mmHg 66%

    26 September, Wednesday

    Time Temperature Precipitation Wind Pressure Humidity
    00:00 +8°C° 0 mm 2 mps 772 mmHg 68%
    01:00 +7°C° 0 mm 2 mps 771 mmHg 69%
    02:00 +7°C° 0 mm 2 mps 771 mmHg 70%
    03:00 +7°C° 0 mm 2 mps 770 mmHg 71%
    04:00 +6°C° 0 mm 2 mps 770 mmHg 71%
    05:00 +7°C° 0 mm 1 mps 770 mmHg 71%
    06:00 +7°C° 0 mm 1 mps 770 mmHg 71%
    07:00 +9°C° 0 mm 1 mps 770 mmHg 65%
    08:00 +11°C° 0 mm 1 mps 770 mmHg 58%
    09:00 +13°C° 0 mm 1 mps 770 mmHg 52%
    10:00 +15°C° 0 mm 2 mps 770 mmHg 48%
    11:00 +16°C° 0 mm 2 mps 770 mmHg 44%
    12:00 +18°C° 0 mm 2 mps 770 mmHg 39%
    13:00 +18°C° 0 mm 2 mps 769 mmHg 39%
    14:00 +19°C° 0 mm 2 mps 769 mmHg 38%
    15:00 +19°C° 0 mm 2 mps 769 mmHg 38%
    16:00 +18°C° 0 mm 1 mps 769 mmHg 43%
    17:00 +16°C° 0 mm 1 mps 769 mmHg 47%
    18:00 +14°C° 0 mm 1 mps 769 mmHg 52%
    19:00 +13°C° 0 mm 1 mps 769 mmHg 54%
    20:00 +13°C° 0 mm 1 mps 769 mmHg 56%
    21:00 +12°C° 0 mm 1 mps 769 mmHg 57%
    22:00 +12°C° 0 mm 1 mps 769 mmHg 59%
    23:00 +11°C° 0 mm 1 mps 769 mmHg 60%

    27 September, Thursday

    Time Temperature Precipitation Wind Pressure Humidity
    00:00 +10°C° 0 mm 2 mps 769 mmHg 61%
    01:00 +10°C° 0 mm 2 mps 769 mmHg 62%
    02:00 +10°C° 0 mm 2 mps 769 mmHg 64%
    03:00 +9°C° 0 mm 2 mps 769 mmHg 65%
    04:00 +9°C° 0 mm 2 mps 769 mmHg 66%
    05:00 +9°C° 0 mm 2 mps 769 mmHg 67%
    06:00 +9°C° 0 mm 2 mps 769 mmHg 68%
    07:00 +12°C° 0 mm 2 mps 769 mmHg 63%
    08:00 +14°C° 0 mm 2 mps 769 mmHg 59%
    09:00 +16°C° 0 mm 2 mps 769 mmHg 54%
    10:00 +18°C° 0 mm 2 mps 768 mmHg 52%
    11:00 +19°C° 0 mm 2 mps 768 mmHg 49%
    12:00 +21°C° 0 mm 2 mps 768 mmHg 46%
    13:00 +21°C° 0 mm 2 mps 768 mmHg 48%
    14:00 +21°C° 0 mm 2 mps 767 mmHg 50%
    15:00 +21°C° 0 mm 2 mps 767 mmHg 52%
    16:00 +21°C° 0 mm 1 mps 766 mmHg 59%
    17:00 +19°C° 0 mm 1 mps 766 mmHg 67%
    18:00 +16°C° 0 mm 1 mps 766 mmHg 74%
    19:00 +16°C° 0 mm 1 mps 766 mmHg 77%
    20:00 +16°C° 0 mm 1 mps 767 mmHg 81%
    21:00 +15°C° 0 mm 1 mps 767 mmHg 84%
    22:00 +15°C° 0 mm 1 mps 767 mmHg 85%
    23:00 +15°C° 0 mm 2 mps 767 mmHg 87%
    Show more